WWA28 KJFK-TXKF

Flight info

Callsign WWA28
Flight time N/A
Altitude 39000
Route SHIPP Y487 KINGG/M084F390 DCT KINER L461 BOVIC MOMOM1
Aircraft B789/H-SDE1E2E3FGHIJ2J3J4J5M1RWXY/LB1D1

Departure

Time 2026-05-06 01:39
Airport John F. Kennedy International Airport (KJFK)

Arrival

Time N/A
Airport L.F. Wade International Airport (TXKF)
Time Latitude Longitude Altitude Speed Heading
2026-05-06 00:50 40.64017 -73.78065 28 ft 0 kts 247°
2026-05-06 01:16 40.64020 -73.78056 27 ft 4 kts 246°
2026-05-06 01:16 40.64032 -73.78024 26 ft 4 kts 237°
2026-05-06 01:17 40.64048 -73.77998 27 ft 4 kts 211°
2026-05-06 01:17 40.64068 -73.77991 27 ft 2 kts 151°
2026-05-06 01:17 40.64069 -73.77992 27 ft 8 kts 150°
2026-05-06 01:23 40.64068 -73.77992 27 ft 1 kts 150°
2026-05-06 01:24 40.64036 -73.77960 27 ft 9 kts 140°
2026-05-06 01:24 40.63984 -73.77898 28 ft 12 kts 137°
2026-05-06 01:24 40.63919 -73.77823 28 ft 12 kts 142°
2026-05-06 01:24 40.63849 -73.77756 28 ft 13 kts 145°
2026-05-06 01:25 40.63791 -73.77699 28 ft 10 kts 142°
2026-05-06 01:25 40.63728 -73.77663 29 ft 9 kts 163°
2026-05-06 01:25 40.63686 -73.77622 29 ft 5 kts 111°
2026-05-06 01:25 40.63690 -73.77583 29 ft 4 kts 63°
2026-05-06 01:26 40.63716 -73.77548 25 ft 7 kts 38°
2026-05-06 01:26 40.63763 -73.77507 23 ft 9 kts 31°
2026-05-06 01:26 40.63816 -73.77465 25 ft 9 kts 31°
2026-05-06 01:26 40.63868 -73.77423 30 ft 9 kts 31°
2026-05-06 01:27 40.63930 -73.77376 26 ft 12 kts 30°
2026-05-06 01:27 40.64010 -73.77313 27 ft 15 kts 31°
2026-05-06 01:27 40.64103 -73.77241 30 ft 16 kts 30°
2026-05-06 01:27 40.64207 -73.77159 29 ft 19 kts 31°
2026-05-06 01:28 40.64317 -73.77072 28 ft 14 kts 31°
2026-05-06 01:28 40.64402 -73.77012 27 ft 11 kts 21°
2026-05-06 01:28 40.64481 -73.76989 28 ft 12 kts 10°
2026-05-06 01:28 40.64561 -73.76946 25 ft 12 kts 30°
2026-05-06 01:29 40.64638 -73.76885 26 ft 13 kts 31°
2026-05-06 01:29 40.64718 -73.76823 27 ft 14 kts 30°
2026-05-06 01:29 40.64796 -73.76763 29 ft 12 kts 30°
2026-05-06 01:29 40.64868 -73.76708 31 ft 13 kts 30°
2026-05-06 01:30 40.64958 -73.76636 31 ft 17 kts 30°
2026-05-06 01:30 40.65057 -73.76557 31 ft 14 kts 38°
2026-05-06 01:30 40.65081 -73.76457 29 ft 11 kts 100°
2026-05-06 01:30 40.65044 -73.76380 30 ft 9 kts 150°
2026-05-06 01:31 40.64991 -73.76381 28 ft 7 kts 207°
2026-05-06 01:31 40.64964 -73.76403 30 ft 0 kts 211°
2026-05-06 01:38 40.64953 -73.76412 31 ft 12 kts 210°
2026-05-06 01:38 40.64689 -73.76615 32 ft 79 kts 211°
2026-05-06 01:38 40.64011 -73.77147 29 ft 145 kts 211°
2026-05-06 01:38 40.62980 -73.77945 112 ft 190 kts 207°
2026-05-06 01:39 40.61872 -73.78755 896 ft 179 kts 212°
2026-05-06 01:39 40.60815 -73.79665 1522 ft 190 kts 218°
2026-05-06 01:39 40.59635 -73.80726 1871 ft 217 kts 214°
2026-05-06 01:39 40.58283 -73.81781 2483 ft 237 kts 211°
2026-05-06 01:40 40.56788 -73.82876 3034 ft 252 kts 210°
2026-05-06 01:40 40.55210 -73.83925 3558 ft 257 kts 198°
2026-05-06 01:40 40.53398 -73.84066 4099 ft 266 kts 178°
2026-05-06 01:40 40.51555 -73.83796 4617 ft 267 kts 169°
2026-05-06 01:41 40.49946 -73.82592 5155 ft 275 kts 131°
2026-05-06 01:41 40.49105 -73.80344 5712 ft 278 kts 105°
2026-05-06 01:41 40.48683 -73.77851 6249 ft 281 kts 103°
2026-05-06 01:41 40.48156 -73.75402 6760 ft 283 kts 110°
2026-05-06 01:42 40.47435 -73.72997 7283 ft 284 kts 114°
2026-05-06 01:42 40.46666 -73.70596 7772 ft 286 kts 112°
2026-05-06 01:42 40.45933 -73.68153 8294 ft 288 kts 111°
2026-05-06 01:42 40.45216 -73.65685 8792 ft 291 kts 111°
2026-05-06 01:43 40.44641 -73.63736 9192 ft 292 kts 112°
2026-05-06 01:43 40.43897 -73.61246 9695 ft 294 kts 112°
2026-05-06 01:43 40.43148 -73.58742 10193 ft 296 kts 112°
2026-05-06 01:43 40.42394 -73.56215 10696 ft 298 kts 112°
2026-05-06 01:44 40.41636 -73.53672 11194 ft 301 kts 112°
2026-05-06 01:44 40.40853 -73.51054 11701 ft 316 kts 112°
2026-05-06 01:44 40.40028 -73.48295 12244 ft 331 kts 112°
2026-05-06 01:44 40.39168 -73.45422 12785 ft 345 kts 112°
2026-05-06 01:45 40.38577 -73.43454 13145 ft 354 kts 112°